Location: Unspecified
(0.0000°N, 0.0000°E)
Time: 04:40:57
(UTC+00:00)

ISS - Pass Details

Date: 23 May 2019
Orbit: 407 x 410 km, 51.6° (Epoch: 23 May)

Event Time Altitude Azimuth Distance (km) Brightness Sun altitude
Exits shadow 04:57:21 20° 210° (SSW) 1,013 -2.3 -13.9°
Drops below altitude 10° 04:59:06 10° 180° (S) 1,469 -1.2 -13.5°
Sets 05:01:29 0° 165° (SSE) 2,332 0.0 -12.9°
